This demonstration page uses our WeatherBlox Daily Observations layout. Learn more.

Left ArrowRight Arrow

39.01783, -85.05884

Hourly Observations for August 29, 2016

Temp ( °F °C ) Dew Point ( °F °C ) Humidity (%) Winds ( mph kmh ) Pressure ( in mb ) Visibility ( mi km ) Precip ( " mm )
12:52 am 00:52 Mostly Cloudy 71 21.7 70 21.1 96 96 NW 6 9 30.14 1021 8 13 N/A
1:52 am 01:52 Mostly Clear with Mist and Fog 70 21.1 70 21.1 100 100 NNE 6 9 30.14 1021 5 8 N/A
2:12 am 02:12 Partly Cloudy with Patchy Fog 72 22 70 21 94 94 NNE 6 9 30.15 1021 6 10 N/A
2:52 am 02:52 Mostly Clear 71 21.7 69 20.6 94 94 N N/A 30.15 1021 8 13 N/A
3:26 am 03:26 Mostly Clear 72 22 70 21 94 94 NE 7 11 30.15 1021 9 14 N/A
3:52 am 03:52 Mostly Clear 71 21.7 70 21.1 96 96 NE 3 6 30.16 1021 7 11 N/A
4:52 am 04:52 Partly Cloudy with Patchy Fog 70 21.1 69 20.6 97 97 N 5 7 30.16 1021 5 8 N/A
5:52 am 05:52 Mostly Clear with Patchy Fog 68 20 68 20 100 100 N 5 7 30.16 1021 3 5 N/A
6:52 am 06:52 Mostly Clear with Patchy Fog 69 20.6 68 20 96 96 N 5 7 30.17 1022 5 8 N/A
7:52 am 07:52 Mostly Sunny 70 21.1 69 20.6 97 97 N 5 7 30.19 1022 8 13 N/A
8:52 am 08:52 Sunny 73 22.8 69 20.6 87 87 N 5 7 30.21 1023 10 16 N/A
9:52 am 09:52 Mostly Sunny 77 25 70 21.1 79 79 NE 7 11 30.21 1023 10 16 N/A
10:52 am 10:52 Mostly Sunny 81 27.2 71 21.7 72 72 ENE 9 15 30.21 1023 10 16 N/A
11:52 am 11:52 Mostly Sunny 83 28.3 70 21.1 65 65 VRB 5 7 30.21 1023 10 16 N/A
12:52 pm 12:52 Mostly Sunny 85 29.4 72 22.2 65 65 NE 3 6 30.20 1023 10 16 N/A
1:52 pm 13:52 Mostly Sunny 88 31.1 72 22.2 59 59 VRB 5 7 30.19 1022 10 16 N/A
2:52 pm 14:52 Partly Cloudy 89 31.7 71 21.7 55 55 E 6 9 30.17 1022 10 16 N/A
3:52 pm 15:52 Partly Cloudy 89 31.7 70 21.1 53 53 NE 6 9 30.14 1021 10 16 N/A
4:52 pm 16:52 Partly Cloudy 86 30 72 22.2 63 63 E 10 17 30.13 1020 10 16 N/A
5:52 pm 17:52 Mostly Cloudy 86 30 71 21.7 61 61 NE 12 19 30.13 1020 10 16 N/A
6:52 pm 18:52 Partly Cloudy 86 30 71 21.7 61 61 ENE 8 13 30.12 1020 10 16 N/A
7:52 pm 19:52 Partly Cloudy 83 28.3 71 21.7 67 67 E 7 11 30.12 1020 10 16 N/A
8:52 pm 20:52 Mostly Clear 83 28.3 71 21.7 67 67 ENE 8 13 30.13 1020 10 16 N/A
9:52 pm 21:52 Clear 83 28.3 71 21.7 67 67 ENE 8 13 30.14 1021 10 16 N/A
10:52 pm 22:52 Clear 81 27.2 71 21.7 72 72 ENE 7 11 30.14 1021 10 16 N/A
11:52 pm 23:52 Clear 78 25.6 71 21.7 79 79 E 7 11 30.14 1021 10 16 N/A

Powered by AerisWeather